This is the latest recevied weather packets stored in our database for station/object KJ4EBE. If no packets are shown the sender has not sent any weather packets the latest 10 day(s).
| Time | Temp. | Humidity | Pressure | Rain* | Wind** | Luminosity | Snow |
|---|---|---|---|---|---|---|---|
| 1777649136 | 12.78° C | 99% | 1014 hPa | 0 mm | - | 54 W/m² | - |
| 1777648833 | 12.78° C | 99% | 1013.8 hPa | 0 mm | - | 79 W/m² | - |
| 1777648530 | 12.78° C | 99% | 1013.9 hPa | 0 mm | - | 80 W/m² | - |
| 1777648227 | 12.78° C | 99% | 1013.7 hPa | 0 mm | - | 85 W/m² | - |
| 1777647922 | 12.78° C | 99% | 1013.5 hPa | 0 mm | - | 98 W/m² | - |
| 1777647618 | 12.78° C | 99% | 1013.3 hPa | 0.51 mm | - | 116 W/m² | - |
| 1777647309 | 12.78° C | 99% | 1013 hPa | 0.51 mm | - | 72 W/m² | - |
| 1777647008 | 12.78° C | 99% | 1012.8 hPa | 0 mm | - | 77 W/m² | - |
| 1777646703 | 12.78° C | 99% | 1012.9 hPa | 0.51 mm | - | 58 W/m² | - |
| 1777646398 | 12.78° C | 99% | 1012.7 hPa | 2.29 mm | - | 68 W/m² | - |
| 1777646094 | 12.78° C | 99% | 1013.1 hPa | 3.05 mm | - | 60 W/m² | - |
| 1777645786 | 12.78° C | 99% | 1013.5 hPa | 3.05 mm | - | 49 W/m² | - |
| 1777645484 | 12.78° C | 99% | 1013.5 hPa | 3.05 mm | - | 39 W/m² | - |
| 1777645184 | 12.78° C | 99% | 1013.6 hPa | 3.56 mm | - | 22 W/m² | - |
| 1777644880 | 12.78° C | 99% | 1013.5 hPa | 5.33 mm | - | 19 W/m² | - |
| 1777644579 | 12.78° C | 99% | 1013.7 hPa | 8.89 mm | - | 20 W/m² | - |
| 1777644274 | 12.78° C | 99% | 1014.6 hPa | 8.89 mm | - | 17 W/m² | - |
| 1777643970 | 12.78° C | 99% | 1014.5 hPa | 7.11 mm | - | 11 W/m² | - |
| 1777643668 | 12.78° C | 99% | 1014.8 hPa | 7.11 mm | - | 7 W/m² | - |
| 1777643365 | 12.78° C | 99% | 1014.8 hPa | 8.38 mm | - | 11 W/m² | - |
| 1777643061 | 12.78° C | 99% | 1015.1 hPa | 4.83 mm | - | 9 W/m² | - |
| 1777642758 | 12.78° C | 99% | 1015.3 hPa | 2.29 mm | - | 10 W/m² | - |
| 1777642455 | 12.78° C | 99% | 1015.3 hPa | 1.27 mm | - | 7 W/m² | - |
| 1777642151 | 12.78° C | 99% | 1015.3 hPa | 0.51 mm | - | 11 W/m² | - |
| 1777641849 | 12.78° C | 99% | 1015.1 hPa | 0.51 mm | - | 11 W/m² | - |
* Rain latest hour (hover to see other rain measurements)
** Current wind speed in m/s (hover to see current wind gust speed)